シュヴァスマン-ヴァハマン第3彗星

73P/Schwassmann-Wachmann 3 (2022)

English version
Home page
Updated on July 24, 2022

---------------------------------------------------------------------

・ プロフィール

・ 写真集

・ 軌道要素

Epoch 2022 Jan. 21.0 TT = JDT 2459600.5
T 2022 Aug. 25.78603 TT                                 Rudenko
q   0.9729530            (2000.0)            P               Q
n   0.18121356     Peri.  199.48146     -0.02175351     +0.98296249
a   3.0927318      Node    69.61492     -0.88949819     +0.06431375
e   0.6854066      Incl.   11.22770     -0.45642059     -0.17218733
P   5.44
From 1580 observations 2016 Feb. 13-2022 Feb. 22, mean residual 0".7.

・ 星図

・ 光度変化

        m1 = 11.5 + 5 logΔ + 15.0 log r

---------------------------------------------------------------------

軌道要素はM.P.E.C. 2022-D36に掲載されたものです。
星図はステラナビゲータ Ver.10 (アストロアーツ) で作成したものです。
光度グラフはComet for Windowsで作成したものです。

---------------------------------------------------------------------

Copyright(C) Seiichi Yoshida (comet@aerith.net). All rights reserved.